Tracking 23726 objects as of 16-Oct-2021
HD Live streaming from Space Station
objects crossing your sky now

SL-8 R/B

Track SL-8 R/B now!
10-day predictions
SL-8 R/B is classified as:


NORAD ID: 19257
Int'l Code: 1988-053B
Perigee: 759.8 km
Apogee: 787.8 km
Inclination: 74.0 °
Period: 100.2 minutes
Semi major axis: 7144 km
RCS: 4.3504 m2 (large)
Launch date: June 21, 1988
Source: Commonwealth of Independent States (former USSR) (CIS)
Launch site: PLESETSK MISSILE AND SPACE COMPLEX (PKMTR)

Note: This is a ROCKET BODY
aabbcc
Your satellite tracking list
Your tracking list is empty




NASA's NSSDC Master Catalog

Two Line Element Set (TLE):
1 19257U 88053B   21288.78029571  .00000060  00000-0  28783-4 0  9996
2 19257  74.0496 188.5521 0019547  45.2081  10.7127 14.37533688745745
Source of the keplerian elements: AFSPC